GW4541 Weather Reports


time (UTC)temp
F
wind
direction
speed
knots
gust
knots
rain 1hr
in
rain 24hr
in
rain mn
in
humidity
%
barometer
mb
20260506000055 50 63 0.0 5.2 0.08 0.16 0.14 99 1006.1
20260505235055 50 140 1.7 2.6 0.08 0.16 0.13 99 1006.4
20260505234054 50 67 1.7 5.2 0.08 0.14 0.11 99 1006.5
20260505233054 50 105 0.9 3.5 0.08 0.13 0.10 99 1006.4
20260505231054 51 63 0.9 3.5 0.08 0.11 0.08 99 1006.3
20260505230055 51 81 0.9 3.5 0.06 0.09 0.06 99 1006.6
20260505225055 51 19 0.0 2.6 0.05 0.08 0.05 99 1006.7
20260505224055 51 39 0.0 6.1 0.03 0.06 0.03 99 1006.6
20260505222055 51 359 2.6 5.2 0.00 0.04 0.00 99 1006.8
20260505221055 51 158 0.9 1.7 0.01 0.04 0.00 99 1007.0
20260505220056 51 34 1.7 2.6 0.01 0.04 0.00 99 1006.8
20260505214055 52 66 1.7 3.5 0.01 0.04 0.04 99 1007.1
20260505213055 52 322 2.6 5.2 0.01 0.05 0.04 99 1007.1
20260505212054 52 80 0.0 3.5 0.01 0.05 0.04 99 1007.1
20260505211054 52 73 2.6 5.2 0.00 0.04 0.03 99 1007.3
20260505210055 52 62 0.9 2.6 0.00 0.05 0.03 99 1007.2
20260505204055 52 50 0.0 6.1 0.00 0.05 0.03 99 1007.4
20260505202054 52 24 2.6 3.5 0.00 0.05 0.03 99 1007.4
20260505201055 52 27 0.0 3.5 0.00 0.05 0.03 99 1007.3
20260505200055 52 117 0.0 3.5 0.00 0.05 0.03 99 1007.3
20260505195056 52 54 0.0 5.2 0.00 0.06 0.03 99 1007.2
20260505194055 52 42 0.0 5.2 0.00 0.06 0.03 99 1007.3
20260505193055 52 31 0.9 3.5 0.00 0.07 0.03 99 1007.3
20260505192055 52 10 1.7 5.2 0.00 0.08 0.03 99 1007.2
20260505190054 52 80 0.0 5.2 0.00 0.18 0.03 99 1007.1
20260505185055 52 69 0.0 5.2 0.00 0.18 0.03 98 1007.3
20260505184055 52 16 0.0 2.6 0.00 0.18 0.03 98 1007.3
20260505183055 52 64 0.9 2.6 0.00 0.18 0.03 98 1007.4
20260505182054 52 19 0.9 5.2 0.00 0.18 0.03 98 1007.3
20260505180054 53 33 0.0 5.2 0.00 0.18 0.03 97 1007.3
20260505175054 52 66 0.0 3.5 0.00 0.18 0.03 97 1007.3
20260505174054 52 54 0.9 3.5 0.00 0.18 0.03 97 1007.5
20260505173054 53 91 0.9 1.7 0.00 0.18 0.03 97 1007.5
20260505172055 52 97 0.0 7.0 0.00 0.18 0.03 97 1007.6
20260505171055 53 88 0.9 3.5 0.00 0.18 0.03 97 1007.4
20260505170056 52 62 0.0 6.1 0.00 0.18 0.03 96 1007.5
20260505165054 52 58 0.9 6.1 0.00 0.18 0.03 96 1007.4
20260505163055 52 47 0.0 3.5 0.00 0.18 0.03 96 1007.8
20260505162054 53 77 0.0 3.5 0.00 0.18 0.03 96 1007.6
20260505161055 52 346 1.7 2.6 0.00 0.18 0.03 96 1007.7
20260505153055 52 50 0.0 3.5 0.00 0.18 0.03 96 1008.1
20260505152055 52 83 0.0 5.2 0.00 0.18 0.03 95 1008.3
20260505151055 53 62 0.0 3.5 0.00 0.18 0.03 95 1008.2
20260505124055 53 33 1.7 7.0 0.00 0.18 0.03 91 1008.9
20260505123055 53 59 1.7 5.2 0.00 0.18 0.03 92 1009.1
20260505122054 53 330 0.9 5.2 0.00 0.18 0.03 92 1009.3
20260505120055 52 355 0.9 5.2 0.00 0.18 0.03 93 1009.1
20260505115055 52 35 0.9 3.5 0.00 0.18 0.03 94 1009.2
20260505114055 52 340 2.6 6.1 0.00 0.18 0.03 94 1009.3
20260505113055 52 356 0.9 7.0 0.00 0.18 0.03 94 1009.4
20260505112055 51 15 3.5 5.2 0.00 0.18 0.03 94 1009.5
20260505111055 51 319 3.5 7.0 0.00 0.18 0.03 95 1009.6
20260505102055 51 39 1.7 3.5 0.00 0.18 0.03 98 1009.7
20260505100058 51 26 3.5 5.2 0.00 0.18 0.03 98 1009.9
20260505095054 51 17 0.9 5.2 0.00 0.18 0.03 98 1009.9
20260505094055 51 354 2.6 3.5 0.00 0.18 0.03 98 1009.9
20260505093054 51 63 2.6 6.1 0.00 0.18 0.03 98 1009.8
20260505092055 51 303 2.6 5.2 0.00 0.18 0.03 99 1009.9
20260505091054 51 355 1.7 3.5 0.00 0.18 0.03 99 1009.9
20260505090054 51 1 0.9 5.2 0.00 0.18 0.03 99 1009.9
20260505085054 51 36 1.7 5.2 0.00 0.18 0.03 99 1009.7
20260505083055 51 37 1.7 2.6 0.00 0.18 0.03 99 1009.9
20260505081055 51 40 0.0 2.6 0.00 0.18 0.03 99 1010.0
20260505080055 51 48 0.9 1.7 0.00 0.18 0.03 99 1009.9
20260505075054 51 313 1.7 2.6 0.00 0.18 0.03 99 1010.1
20260505074055 51 32 1.7 3.5 0.00 0.18 0.03 99 1010.0
20260505073055 50 39 0.9 3.5 0.00 0.18 0.03 99 1010.0
20260505071055 51 353 0.0 2.6 0.00 0.18 0.03 99 1010.0
20260505070055 51 323 0.0 3.5 0.00 0.18 0.03 99 1010.1
20260505064055 51 22 0.9 2.6 0.00 0.18 0.03 99 1009.9
20260505063055 51 326 0.9 2.6 0.00 0.18 0.03 99 1010.1
20260505062054 51 32 0.9 1.7 0.00 0.18 0.03 99 1010.1
20260505061055 51 311 0.0 1.7 0.00 0.18 0.03 99 1010.0
20260505060055 51 314 0.0 2.6 0.00 0.18 0.03 99 1010.0
20260505055055 52 358 0.0 2.6 0.00 0.18 0.03 99 1010.1
20260505053054 52 13 1.7 3.5 0.00 0.18 0.03 99 1010.0
20260505052056 52 357 0.9 1.7 0.00 0.18 0.03 99 1009.9
20260505051055 53 31 0.9 3.5 0.00 0.18 0.03 99 1010.0
20260505041055 55 13 0.0 0.0 0.00 0.18 0.03 99 1009.8
20260505035055 55 342 0.0 0.0 0.00 0.18 0.03 99 1010.0
20260505034054 56 3 0.0 0.0 0.00 0.18 0.03 99 1009.9
20260505032054 55 257 0.0 0.0 0.00 0.18 0.03 99 1009.8
20260505031054 55 257 0.0 0.0 0.00 0.18 0.03 99 1010.0
20260505030055 55 257 0.0 0.0 0.00 0.18 0.03 99 1010.1
20260505025056 55 257 0.0 0.0 0.00 0.18 0.03 99 1010.0
20260505024055 55 257 0.0 0.0 0.00 0.18 0.03 99 1010.0
20260505023056 55 257 0.0 0.0 0.00 0.18 0.03 99 1010.0
20260505021104 55 257 0.0 0.0 0.01 0.18 0.03 98 1010.2
20260505020058 55 257 0.0 0.0 0.01 0.18 0.03 98 1010.3
20260505015056 55 257 0.0 0.0 0.01 0.18 0.03 98 1010.3
20260505014058 55 258 0.0 1.7 0.01 0.18 0.03 98 1010.3
20260505013104 56 258 0.0 0.9 0.01 0.18 0.03 98 1010.5
20260505012058 56 261 0.0 1.7 0.00 0.17 0.02 98 1010.5
20260505010100 56 249 0.9 2.6 0.00 0.17 0.02 98 1010.7
20260505005103 56 240 0.9 2.6 0.01 0.17 0.02 98 1010.7
20260505004056 56 255 1.7 2.6 0.01 0.17 0.02 98 1010.9
20260505003056 56 249 0.0 0.9 0.01 0.17 0.02 98 1010.8
20260505002100 56 273 0.0 1.7 0.01 0.17 0.02 98 1010.7